Location: *
(57.8420°S, 159.8600°W)
Time: 13:11:43
(UTC+00:00)

Meteor 1-31 Rocket - Pass Details

Date: 18 May 2021
Orbit: 520 x 545 km, 97.7° (Epoch: 22 June)

Event Time Altitude Azimuth Distance (km) Brightness Sun altitude
Exits shadow 04:46:24 - 171° (S) 2,311 5.8 -17.9°
Reaches altitude 10° 04:47:38 10° 176° (S) 1,814 5.3 -18.0°
Maximum altitude 04:51:17 39° 244° (WSW) 821 4.1 -18.5°
Drops below altitude 10° 04:54:53 10° 313° (NW) 1,786 6.2 -19.0°
Sets 04:57:04 0° 321° (NW) 2,668 7.0 -19.3°
